Pierre Regional Airport
KPIR : now visible

Airfield :











YOU CAN JOIN US ON...

 
LOGIN :

Register | Disclaimer

   EN    FR    IT 

 









Legend :    VFR   Marginal VFR   IFR   Intensive IFR   Very Intensive IFR
Visi :
Ceiling :
>= 8 km
>= 3000ft
5 to 8 km
1000 to 3000 ft
1500m to 5 km
500 to 1000 ft
800 to 1500m
200 to 500 ft
< 800m
< 200 ft
Symbols :   Thunderstorms  Fog  Heavy snow  Heavy precipitations  Wind > 20 kt






- Airport Elevation : 1744 ft
- IATA code : PIR


KPIR - Pierre Regional

CURRENT METAR :
  • 230053Z AUTO 08008KT 10SM CLR 06/03 A2998 RMK AO2 SLP161 T00560028

EXPIRED METARs :
  • 222353Z AUTO 09004KT 10SM CLR 08/03 A2998 RMK AO2 SLP160 T00830033 10133 20083 50002
  • 222253Z AUTO 12007KT 10SM CLR 12/04 A2998 RMK AO2 SLP158 T01170044

TAF KPIR
Valid from the 23 at 00:00 until the 24 at 00:00 UTC


222320Z 2300/2324 12007KT P6SM SKC
FM231000 10010G17KT P6SM BKN120
FM231800 13019G29KT P6SM SCT250
KZMP FIR / North America



MET'MAP, your aeronautical weather chart ! - Copyright ORBIFLY December 2007 - Disclaimer

ORBIFLY MET'MAP TEAM :

Programming & Development : Alexandra Zaïnal
Concept & original design : Baudouin d'Aumeries
Assistance for programming : Marc-Olivier Méhu
Technical & hardware support : Manuel Goepfert

Contact : metmap@orbifly.com




SOURCES & CREDITS :

   NOAA       Earth
Advisory